Flag for U.S.A. Weather past 2 weeks in Lansing, Michigan, U.S.A.

Now
73 °F

Passing clouds.


Feels Like: 75 °F
Forecast: 67 / 83 °F
Wind: 5 mph from Southeast

Location: Capital City Airport

Current Time: Jul 29, 2015 at 3:42:15 AM

Latest Report: Jul 29, 2015 at 2:53 AM


Visibility: 10 mi

Pressure: 29.96 "Hg

Humidity: 69%

Dew point: 62 °F

Location of LansingLocation

Historic Weather in Lansing — Graph

°F

Lansing temperature yesterday

Maximum temperature yesterday: 88 °F (at 2:53 PM)
Minimum temperature yesterday: 63 °F (at 5:53 AM)
Average temperature yesterday: 77 °F

Past Weeks' High & Low Weather Summary

 TemperatureHumidityPressure
High88 °F (Jul 28, 2:53 PM)96% (Jul 17, 6:04 AM)30.10 "Hg (Jul 17, 6:04 AM)
Low53 °F (Jul 16, 4:53 AM)37% (Jul 28, 4:53 PM)29.47 "Hg (Jul 14, 5:53 AM)
Average72 °F71%29.90 "Hg
* Reported Jul 14 1:59 AM — Jul 29 1:53 AM, Lansing, Weather by CustomWeather, © 2015

Note: Actual official high and low records may vary slightly from our data, if they occured in-between our weather recording intervals... More about our weather records

Advertising

Lansing weather history for previous 24 hours

 ConditionsComfort  
Time TempWeatherWind HumidityBarometerVisibility
1:53 AM
Wed, Jul 29
74 °FPassing clouds.No wind64%29.99 "Hg10 mi
12:53 AM73 °FClear.5 mph66%29.97 "Hg10 mi
11:53 PM
Tue, Jul 28
72 °FClear.No wind73%29.98 "Hg10 mi
10:53 PM74 °FClear.No wind69%29.99 "Hg10 mi
9:53 PM76 °FSunny.No wind64%29.96 "Hg10 mi
8:53 PM83 °FSunny.3 mph50%29.96 "Hg10 mi
7:53 PM83 °FSunny.9 mph50%29.93 "Hg10 mi
6:53 PM87 °FSunny.9 mph43%29.94 "Hg10 mi
5:53 PM87 °FSunny.6 mph43%29.96 "Hg10 mi
4:53 PM87 °FSunny.7 mph37%29.98 "Hg10 mi
3:53 PM87 °FSunny.7 mph39%30.00 "Hg10 mi
2:53 PM88 °FSunny.8 mph42%30.00 "Hg10 mi
1:53 PM87 °FSunny.3 mph45%30.02 "Hg10 mi
12:53 PM87 °FSunny.7 mph43%30.03 "Hg10 mi
11:53 AM85 °FSunny.12 mph48%30.03 "Hg10 mi
10:53 AM83 °FSunny.8 mph51%30.03 "Hg10 mi
9:53 AM81 °FSunny.6 mph53%30.04 "Hg10 mi
8:53 AM77 °FSunny.3 mph64%30.05 "Hg10 mi
7:53 AM70 °FSunny.No wind87%30.05 "Hg10 mi
6:53 AM64 °FClear.No wind94%30.04 "Hg10 mi
5:53 AM63 °FClear.No wind93%30.03 "Hg10 mi
4:53 AM65 °FClear.No wind94%30.03 "Hg10 mi
3:53 AM65 °FClear.No wind94%30.03 "Hg10 mi
Weather by CustomWeather, © 2015

See weather overviewHow to use our weather pages